WetterOnline ( https://www.wetteronline.de )

Wetter aktuell De Kieviet

Aktuelles Wetter: Rotterdam Flughafen (-4m)

6-stündlich | Neueste Meldungen
Ortszeit Temperatur Wetter
Sa, 22.01. 19:00 5.8° C bedeckt
Sa, 22.01. 13:00 7.1° C bedeckt
Sa, 22.01. 7:00 6.4° C bedeckt
Sa, 22.01. 1:00 5.7° C bedeckt
Fr, 21.01. 19:00 5.5° C bedeckt
Fr, 21.01. 13:00 7.1° C bewölkt
Fr, 21.01. 7:00 2.2° C leichte Schauer
Fr, 21.01. 1:00 3.2° C wolkig
Ortszeit Temperatur Wetter
Sa, 22.01. 23:00 6.0° C bedeckt
Sa, 22.01. 22:00 6.1° C bedeckt
Sa, 22.01. 21:00 6.1° C bedeckt
Sa, 22.01. 20:00 6.1° C bedeckt
Sa, 22.01. 19:00 5.8° C bedeckt
Sa, 22.01. 18:00 5.9° C bedeckt
Sa, 22.01. 17:00 6.1° C bedeckt
Ortszeit Relative Feuchte Sichtweite
Sa, 22.01. 19:00 91% 12 km
Sa, 22.01. 13:00 87% 18 km
Sa, 22.01. 7:00 88% 35 km
Sa, 22.01. 1:00 88% 23 km
Fr, 21.01. 19:00 87% 23 km
Fr, 21.01. 13:00 82% 25 km
Fr, 21.01. 7:00 93% 20 km
Fr, 21.01. 1:00 81% 25 km
Ortszeit Relative Feuchte Sichtweite
Sa, 22.01. 23:00 89% 23 km
Sa, 22.01. 22:00 88% 20 km
Sa, 22.01. 21:00 87% 24 km
Sa, 22.01. 20:00 90% 15 km
Sa, 22.01. 19:00 91% 12 km
Sa, 22.01. 18:00 91% 11 km
Sa, 22.01. 17:00 90% 13 km
Ortszeit Niederschlagsmenge Niederschlagsart
Sa, 22.01. 19:00 0.0 l/m2 in 12 Std. -
Sa, 22.01. 13:00 0.0 l/m2 in 6 Std. -
Sa, 22.01. 7:00 0.0 l/m2 in 12 Std. -
Sa, 22.01. 1:00 0.0 l/m2 in 6 Std. -
Fr, 21.01. 19:00 0.2 l/m2 in 12 Std. Regenschauer
Fr, 21.01. 13:00 0.0 l/m2 in 6 Std. -
Fr, 21.01. 7:00 0.1 l/m2 in 12 Std. Regenschauer
Fr, 21.01. 1:00 0.0 l/m2 in 6 Std. Schauer
Ortszeit Niederschlagsmenge Niederschlagsart
Sa, 22.01. 23:00 0.0 l/m2 in 1 Std. -
Sa, 22.01. 22:00 0.0 l/m2 in 1 Std. -
Sa, 22.01. 21:00 0.0 l/m2 in 1 Std. -
Sa, 22.01. 20:00 0.0 l/m2 in 1 Std. -
Sa, 22.01. 19:00 0.0 l/m2 in 1 Std. -
Sa, 22.01. 18:00 0.0 l/m2 in 1 Std. -
Sa, 22.01. 17:00 0.0 l/m2 in 1 Std. -
Ortszeit Stärke Spitze Richtung
km/h Bft. km/h Grad Sektor
Sa, 22.01. 19:00 7 2 22 270° W
Sa, 22.01. 13:00 11 2 25 280° W
Sa, 22.01. 7:00 7 2 22 270° W
Sa, 22.01. 1:00 11 2 32 270° W
Fr, 21.01. 19:00 14 3 32 280° W
Fr, 21.01. 13:00 22 4 36 320° NW
Fr, 21.01. 7:00 7 2 29 280° W
Fr, 21.01. 1:00 11 2 43 330° NW
Ortszeit Stärke Spitze Richtung
km/h Bft. km/h Grad Sektor
Sa, 22.01. 23:00 7 2 11 250° W
Sa, 22.01. 22:00 7 2 14 250° W
Sa, 22.01. 21:00 4 1 11 250° W
Sa, 22.01. 20:00 7 2 11 250° W
Sa, 22.01. 19:00 7 2 22 270° W
Sa, 22.01. 18:00 7 2 14 270° W
Sa, 22.01. 17:00 11 2 14 260° W
Ortszeit Untergrenze Bedeckung Gattung
total tief tief mittel hoch
Sa, 22.01. 19:00 - 8/8 8/8 - - -
Sa, 22.01. 13:00 - 8/8 8/8 - - -
Sa, 22.01. 7:00 - 8/8 8/8 - - -
Sa, 22.01. 1:00 - 8/8 8/8 - - -
Fr, 21.01. 19:00 - 8/8 8/8 - - -
Fr, 21.01. 13:00 480 m 8/8 7/8 - - -
Fr, 21.01. 7:00 570 m 6/8 6/8 - - -
Fr, 21.01. 1:00 810 m 6/8 6/8 - - -
Ortszeit Bedeckungsgrad in Achtel und Wolkenuntergrenze
Sa, 22.01. 23:00 8
Sa, 22.01. 22:00 8
Sa, 22.01. 21:00 8
Sa, 22.01. 20:00 8
Sa, 22.01. 19:00 8
Sa, 22.01. 18:00 8
Sa, 22.01. 17:00 8
Ortszeit Luftdruck NN (hPa) Tendenz (hPa in 3 Std.)
Sa, 22.01. 19:00 1036 + 0,6
Sa, 22.01. 13:00 1035 + 0,6
Sa, 22.01. 7:00 1034 + 0,3
Sa, 22.01. 1:00 1034 + 0,1
Fr, 21.01. 19:00 1034 fallend
Fr, 21.01. 13:00 1035 - 0,1
Fr, 21.01. 7:00 1035 0,0
Fr, 21.01. 1:00 1035 + 1,0
Ortszeit Luftdruck NN (hPa) Tendenz (hPa in 3 Std.)
Sa, 22.01. 23:00 1036 + 0,1
Sa, 22.01. 22:00 1035 fallend
Sa, 22.01. 21:00 1035 + 0,3
Sa, 22.01. 20:00 1036 + 0,6
Sa, 22.01. 19:00 1036 + 0,6
Sa, 22.01. 18:00 1035 fallend
Sa, 22.01. 17:00 1035 fallend
Ortszeit Schneehöhe (cm)
Sa, 22.01. 19:00 -
Sa, 22.01. 13:00 -
Sa, 22.01. 7:00 -
Sa, 22.01. 1:00 -
Fr, 21.01. 19:00 -
Fr, 21.01. 13:00 -
Fr, 21.01. 7:00 -
Fr, 21.01. 1:00 -
Ortszeit Schneehöhe (cm)
Sa, 22.01. 23:00 -
Sa, 22.01. 22:00 -
Sa, 22.01. 21:00 -
Sa, 22.01. 20:00 -
Sa, 22.01. 19:00 -
Sa, 22.01. 18:00 -
Sa, 22.01. 17:00 -
Link zu dieser Seite / Seite empfehlen

Das Wetter in ...